Time,TemperatureF,DewpointF,PressureIn,WindDirection,WindDirectionDegrees,WindSpeedMPH,WindSpeedGustMPH,Humidity,HourlyPrecipIn,Conditions,Clouds,dailyrainin,SoftwareType,DateUTC
2013-10-10 00:01:00,65.0,56.0,30.01,SE,138,1.0,10.0,72,0.00,,,0.00,,2013-10-10 05:01:00,
2013-10-10 00:22:00,65.0,56.0,30.01,SE,138,1.0,10.0,72,0.00,,,0.00,,2013-10-10 05:22:00,
2013-10-10 00:34:00,65.0,56.0,30.01,SE,138,1.0,10.0,72,0.00,,,0.00,,2013-10-10 05:34:00,
2013-10-10 00:43:00,65.0,56.0,30.01,SE,138,1.0,10.0,72,0.00,,,0.00,,2013-10-10 05:43:00,
2013-10-10 00:52:00,65.0,56.0,30.01,SE,138,1.0,10.0,72,0.00,,,0.00,,2013-10-10 05:52:00,
2013-10-10 01:22:00,64.0,56.0,30.01,SSE,163,6.0,11.0,74,0.00,,,0.00,,2013-10-10 06:22:00,
2013-10-10 01:43:00,65.0,56.0,30.00,SSW,195,6.0,8.0,74,0.00,,,0.00,,2013-10-10 06:43:00,
2013-10-10 01:53:00,65.0,56.0,30.00,South,180,1.0,7.0,73,0.00,,,0.00,,2013-10-10 06:53:00,
2013-10-10 02:11:00,65.0,56.0,30.00,East,97,8.0,10.0,73,0.00,,,0.00,,2013-10-10 07:11:00,
2013-10-10 02:21:00,65.0,56.0,30.01,South,173,3.0,10.0,73,0.00,,,0.00,,2013-10-10 07:21:00,
2013-10-10 02:32:00,65.0,56.0,30.01,South,173,3.0,10.0,73,0.00,,,0.00,,2013-10-10 07:32:00,
2013-10-10 02:42:00,65.0,56.0,30.01,South,173,3.0,10.0,73,0.00,,,0.00,,2013-10-10 07:42:00,
2013-10-10 02:52:00,64.0,56.0,30.01,SSE,165,3.0,11.0,74,0.00,,,0.00,,2013-10-10 07:52:00,
2013-10-10 03:11:00,64.0,56.0,30.01,SE,143,0.0,9.0,75,0.00,,,0.00,,2013-10-10 08:11:00,
2013-10-10 03:22:00,63.0,55.0,30.01,SE,134,0.0,8.0,76,0.00,,,0.00,,2013-10-10 08:22:00,
2013-10-10 03:42:00,63.0,55.0,30.01,SW,214,1.0,8.0,76,0.00,,,0.00,,2013-10-10 08:42:00,
2013-10-10 03:52:00,63.0,55.0,30.01,ESE,119,1.0,7.0,76,0.00,,,0.00,,2013-10-10 08:52:00,
2013-10-10 04:12:00,62.0,54.0,30.00,SSE,150,2.0,9.0,76,0.00,,,0.00,,2013-10-10 09:12:00,
2013-10-10 04:22:00,62.0,54.0,30.00,SSE,150,2.0,9.0,76,0.00,,,0.00,,2013-10-10 09:22:00,
2013-10-10 04:43:00,62.0,54.0,30.00,South,177,2.0,7.0,76,0.00,,,0.00,,2013-10-10 09:43:00,
2013-10-10 04:53:00,62.0,54.0,30.00,South,177,2.0,7.0,76,0.00,,,0.00,,2013-10-10 09:53:00,
2013-10-10 05:01:00,62.0,54.0,30.00,SE,135,4.0,8.0,74,0.00,,,0.00,,2013-10-10 10:01:00,
2013-10-10 05:23:00,62.0,54.0,30.00,SE,135,4.0,8.0,74,0.00,,,0.00,,2013-10-10 10:23:00,
2013-10-10 05:32:00,62.0,54.0,30.00,SE,135,4.0,8.0,74,0.00,,,0.00,,2013-10-10 10:32:00,
2013-10-10 05:42:00,62.0,54.0,30.00,SE,135,4.0,8.0,74,0.00,,,0.00,,2013-10-10 10:42:00,
2013-10-10 05:53:00,62.0,54.0,30.00,SE,135,4.0,8.0,74,0.00,,,0.00,,2013-10-10 10:53:00,
2013-10-10 06:22:00,62.0,54.0,29.98,SE,135,4.0,4.0,74,0.00,,,0.00,,2013-10-10 11:22:00,
2013-10-10 06:42:00,62.0,54.0,29.97,SE,135,4.0,4.0,74,0.00,,,0.00,,2013-10-10 11:42:00,
2013-10-10 06:56:00,62.0,54.0,29.98,SE,135,4.0,4.0,74,0.00,,,0.00,,2013-10-10 11:56:00,
2013-10-10 07:11:00,62.0,54.0,29.98,SE,135,4.0,4.0,74,0.00,,,0.00,,2013-10-10 12:11:00,
2013-10-10 07:21:00,62.0,54.0,29.98,SE,135,4.0,4.0,74,0.00,,,0.00,,2013-10-10 12:21:00,
2013-10-10 07:32:00,62.0,54.0,29.98,SE,135,4.0,4.0,74,0.00,,,0.00,,2013-10-10 12:32:00,
2013-10-10 07:41:00,62.0,54.0,29.98,SE,135,4.0,4.0,74,0.00,,,0.00,,2013-10-10 12:41:00,
2013-10-10 07:52:00,62.0,54.0,29.97,SE,135,4.0,4.0,74,0.00,,,0.00,,2013-10-10 12:52:00,
2013-10-10 08:12:00,62.0,54.0,29.96,SE,135,4.0,4.0,74,0.00,,,0.00,,2013-10-10 13:12:00,
2013-10-10 08:21:00,62.0,54.0,29.96,SE,135,4.0,4.0,74,0.00,,,0.00,,2013-10-10 13:21:00,
2013-10-10 08:31:00,62.0,54.0,29.96,SE,135,4.0,4.0,74,0.00,,,0.00,,2013-10-10 13:31:00,
2013-10-10 08:42:00,62.0,54.0,29.96,SE,135,4.0,4.0,74,0.00,,,0.00,,2013-10-10 13:42:00,
2013-10-10 08:52:00,64.0,55.0,29.97,South,174,4.0,13.0,72,0.00,,,0.00,,2013-10-10 13:52:00,
2013-10-10 09:11:00,65.0,55.0,29.97,SE,138,9.0,9.0,71,0.00,,,0.00,,2013-10-10 14:11:00,
2013-10-10 09:21:00,65.0,55.0,29.97,SE,138,9.0,9.0,71,0.00,,,0.00,,2013-10-10 14:21:00,
2013-10-10 09:32:00,65.0,55.0,29.97,SE,138,9.0,9.0,71,0.00,,,0.00,,2013-10-10 14:32:00,
2013-10-10 09:42:00,65.0,55.0,29.97,SE,138,9.0,9.0,71,0.00,,,0.00,,2013-10-10 14:42:00,
2013-10-10 09:52:00,67.0,56.0,29.98,SSW,194,4.0,13.0,67,0.00,,,0.00,,2013-10-10 14:52:00,
2013-10-10 10:02:00,67.0,56.0,29.98,SSW,194,4.0,13.0,67,0.00,,,0.00,,2013-10-10 15:02:00,
2013-10-10 10:11:00,67.0,56.0,29.98,SSW,194,4.0,13.0,67,0.00,,,0.00,,2013-10-10 15:11:00,
2013-10-10 10:22:00,69.0,57.0,29.98,SSW,208,8.0,12.0,65,0.00,,,0.00,,2013-10-10 15:22:00,
2013-10-10 10:33:00,69.0,57.0,29.98,SSW,208,8.0,12.0,65,0.00,,,0.00,,2013-10-10 15:33:00,
2013-10-10 10:43:00,69.0,57.0,29.98,SSW,208,8.0,12.0,65,0.00,,,0.00,,2013-10-10 15:43:00,
2013-10-10 10:54:00,71.0,57.0,29.98,SSW,200,4.0,13.0,62,0.00,,,0.00,,2013-10-10 15:54:00,
2013-10-10 11:23:00,73.0,58.0,29.97,SSE,163,7.0,12.0,59,0.00,,,0.00,,2013-10-10 16:23:00,
2013-10-10 11:31:00,74.0,57.0,29.96,SE,132,8.0,13.0,56,0.00,,,0.00,,2013-10-10 16:31:00,
2013-10-10 11:42:00,74.0,58.0,29.97,SW,218,8.0,13.0,57,0.00,,,0.00,,2013-10-10 16:42:00,
2013-10-10 11:53:00,74.0,57.0,29.96,SE,132,8.0,13.0,56,0.00,,,0.00,,2013-10-10 16:53:00,
2013-10-10 12:02:00,74.0,57.0,29.96,SE,132,8.0,13.0,56,0.00,,,0.00,,2013-10-10 17:02:00,
2013-10-10 12:12:00,74.0,57.0,29.96,SE,132,8.0,13.0,56,0.00,,,0.00,,2013-10-10 17:12:00,
2013-10-10 12:23:00,74.0,57.0,29.96,SE,132,8.0,13.0,56,0.00,,,0.00,,2013-10-10 17:23:00,
2013-10-10 13:12:00,79.0,59.0,29.94,SE,131,4.0,13.0,50,0.00,,,0.00,,2013-10-10 18:12:00,
2013-10-10 13:21:00,79.0,59.0,29.94,SE,131,4.0,13.0,50,0.00,,,0.00,,2013-10-10 18:21:00,
2013-10-10 13:32:00,79.0,59.0,29.94,SE,131,4.0,13.0,50,0.00,,,0.00,,2013-10-10 18:32:00,
2013-10-10 13:42:00,79.0,59.0,29.94,SE,131,4.0,13.0,50,0.00,,,0.00,,2013-10-10 18:42:00,
2013-10-10 13:52:00,81.0,59.0,29.92,SSE,158,5.0,13.0,47,0.00,,,0.00,,2013-10-10 18:52:00,
2013-10-10 14:01:00,81.0,59.0,29.92,SSE,158,5.0,13.0,47,0.00,,,0.00,,2013-10-10 19:01:00,
2013-10-10 14:11:00,81.0,59.0,29.92,SSE,158,5.0,13.0,47,0.00,,,0.00,,2013-10-10 19:11:00,
2013-10-10 14:22:00,82.0,59.0,29.90,WSW,239,4.0,16.0,46,0.00,,,0.00,,2013-10-10 19:22:00,
2013-10-10 14:42:00,82.0,59.0,29.90,South,186,5.0,13.0,45,0.00,,,0.00,,2013-10-10 19:42:00,
2013-10-10 14:53:00,82.0,59.0,29.90,South,186,5.0,13.0,45,0.00,,,0.00,,2013-10-10 19:53:00,
2013-10-10 15:22:00,83.0,59.0,29.87,SE,143,8.0,16.0,44,0.00,,,0.00,,2013-10-10 20:22:00,
2013-10-10 15:42:00,84.0,59.0,29.87,SSW,194,5.0,14.0,43,0.00,,,0.00,,2013-10-10 20:42:00,
2013-10-10 15:52:00,84.0,59.0,29.87,SSW,194,5.0,14.0,43,0.00,,,0.00,,2013-10-10 20:52:00,
2013-10-10 16:22:00,84.0,60.0,29.85,SSW,195,4.0,13.0,44,0.00,,,0.00,,2013-10-10 21:22:00,
2013-10-10 16:43:00,84.0,60.0,29.85,SSE,148,8.0,14.0,45,0.00,,,0.00,,2013-10-10 21:43:00,
2013-10-10 16:54:00,84.0,60.0,29.84,South,176,8.0,16.0,44,0.00,,,0.00,,2013-10-10 21:54:00,
2013-10-10 17:13:00,83.0,59.0,29.84,South,188,4.0,17.0,45,0.00,,,0.00,,2013-10-10 22:13:00,
2013-10-10 17:24:00,83.0,59.0,29.84,South,188,4.0,17.0,45,0.00,,,0.00,,2013-10-10 22:24:00,
2013-10-10 17:33:00,83.0,59.0,29.84,South,188,4.0,17.0,45,0.00,,,0.00,,2013-10-10 22:33:00,
2013-10-10 17:43:00,83.0,59.0,29.84,South,188,4.0,17.0,45,0.00,,,0.00,,2013-10-10 22:43:00,
2013-10-10 17:53:00,83.0,60.0,29.83,SSW,211,12.0,15.0,46,0.00,,,0.00,,2013-10-10 22:53:00,
2013-10-10 18:12:00,82.0,60.0,29.83,ESE,123,5.0,15.0,47,0.00,,,0.00,,2013-10-10 23:12:00,
2013-10-10 18:23:00,82.0,60.0,29.83,ESE,123,5.0,15.0,47,0.00,,,0.00,,2013-10-10 23:23:00,
2013-10-10 18:53:00,80.0,59.0,29.82,SSE,159,8.0,16.0,49,0.00,,,0.00,,2013-10-10 23:53:00,
2013-10-10 19:02:00,80.0,59.0,29.82,SSE,159,8.0,16.0,49,0.00,,,0.00,,2013-10-11 00:02:00,
2013-10-10 19:11:00,80.0,59.0,29.82,SSE,159,8.0,16.0,49,0.00,,,0.00,,2013-10-11 00:11:00,
2013-10-10 19:21:00,80.0,59.0,29.82,SSE,159,8.0,16.0,49,0.00,,,0.00,,2013-10-11 00:21:00,
2013-10-10 19:42:00,77.0,59.0,29.81,SW,229,4.0,13.0,54,0.00,,,0.00,,2013-10-11 00:42:00,
2013-10-10 19:52:00,77.0,60.0,29.81,ESE,120,0.0,13.0,56,0.00,,,0.00,,2013-10-11 00:52:00,
2013-10-10 20:11:00,76.0,60.0,29.82,SE,124,5.0,14.0,57,0.00,,,0.00,,2013-10-11 01:11:00,
2013-10-10 20:21:00,75.0,59.0,29.82,SSE,158,7.0,13.0,58,0.00,,,0.00,,2013-10-11 01:21:00,
2013-10-10 20:32:00,75.0,59.0,29.82,SSE,158,7.0,13.0,58,0.00,,,0.00,,2013-10-11 01:32:00,
2013-10-10 20:42:00,75.0,59.0,29.82,SSE,158,7.0,13.0,58,0.00,,,0.00,,2013-10-11 01:42:00,
2013-10-10 20:52:00,74.0,60.0,29.81,SE,131,5.0,14.0,61,0.00,,,0.00,,2013-10-11 01:52:00,
2013-10-10 21:02:00,74.0,60.0,29.81,SE,131,5.0,14.0,61,0.00,,,0.00,,2013-10-11 02:02:00,
2013-10-10 21:12:00,74.0,60.0,29.81,SE,131,5.0,14.0,61,0.00,,,0.00,,2013-10-11 02:12:00,
2013-10-10 21:22:00,73.0,60.0,29.82,SE,143,7.0,13.0,63,0.00,,,0.00,,2013-10-11 02:22:00,
2013-10-10 21:42:00,72.0,59.0,29.80,SE,138,6.0,19.0,64,0.00,,,0.00,,2013-10-11 02:42:00,
2013-10-10 21:52:00,72.0,60.0,29.79,ESE,112,4.0,13.0,65,0.00,,,0.00,,2013-10-11 02:52:00,
2013-10-10 22:02:00,72.0,60.0,29.79,ESE,112,4.0,13.0,65,0.00,,,0.00,,2013-10-11 03:02:00,
2013-10-10 22:23:00,70.0,59.0,29.79,SE,128,8.0,14.0,67,0.00,,,0.00,,2013-10-11 03:23:00,
2013-10-10 22:34:00,70.0,59.0,29.79,SE,128,8.0,14.0,67,0.00,,,0.00,,2013-10-11 03:34:00,
2013-10-10 22:45:00,70.0,59.0,29.79,SE,128,8.0,14.0,67,0.00,,,0.00,,2013-10-11 03:45:00,
2013-10-10 22:54:00,70.0,59.0,29.80,South,184,3.0,14.0,67,0.00,,,0.00,,2013-10-11 03:54:00,
2013-10-10 23:04:00,70.0,59.0,29.80,South,184,3.0,14.0,67,0.00,,,0.00,,2013-10-11 04:04:00,
2013-10-10 23:13:00,70.0,59.0,29.80,South,184,3.0,14.0,67,0.00,,,0.00,,2013-10-11 04:13:00,
2013-10-10 23:24:00,70.0,59.0,29.80,South,184,3.0,14.0,67,0.00,,,0.00,,2013-10-11 04:24:00,
2013-10-10 23:44:00,70.0,59.0,29.79,SSE,156,5.0,14.0,67,0.00,,,0.00,,2013-10-11 04:44:00,
2013-10-10 23:53:00,69.0,58.0,29.79,SSW,197,7.0,13.0,67,0.00,,,0.00,,2013-10-11 04:53:00,